Kodiak, AK

1:05 PM AKDT en Octubre 22, 2017 (GMT -0800)
Kodiak

Tiempo Historia de PADQ - Octubre, 2017

Change the Weather History Date:

Viernes, Octubre 13, 2017

  Actual Average Record
Temperature  
Temperatura media 46 ° F 41 ° F  
Temperatura máxima 54 ° F 47 ° F 58 ° F (1926)
Temperatura mínima 37 ° F 35 ° F 20 ° F (1927)
Degree Days  
Grados día de calefacción 19 24  
Month to date heating degree days 209 288  
Since 1 July heating degree days 1254 1389  
Cooling Degree Days 0 0  
Month to date cooling degree days 0 0  
Year to date cooling degree days 0 1  
Moisture  
Punto de rocío 33 ° F    
Average Humidity 61    
Maximum Humidity 76    
Minimum Humidity 46    
Precipitación  
Precipitación 0.00 pul 0.26 pul 2.78 pul (1942)
Month to date precipitation 2.25 3.60  
Year to date precipitation 49.83 57.74  
Nieve  
Nieve 0.00 pul 0.10 pul - ()
Month to date snowfall 0.0 0.2  
Since 1 July snowfall 0.0 0.2  
Since 1 September snowfall 0.0 0.2  
Grosos de nieve 0.00 pul    
Presión al nivel del mar  
Presión al nivel del mar 29.99 pul    
Viento  
Velocidad del viento 5 mph (ONO)    
Velocidad máxima del viento 16 mph    
Max Gust Speed 24 mph    
Visibilidad 10 Millas    
Eventos      
T = Trace of Precipitation, MM = Missing Value Source: NWS Daily Summary

Daily Weather History Graph

Daily Weather History Graph

Search for Another Location

Airport or City:

Trip Planner

Search our weather history database for the weather conditions in past years. The results will help you decide how hot, cold, wet, or windy it might be!

Date:

Astronomía

Oct. 13, 2017 Salida Puesta
Hora real 8:41 AM AKDT 7:09 PM AKDT
Crepúsculo civil 8:01 AM AKDT 7:49 PM AKDT
Crepúsculo náutico 7:16 AM AKDT 8:34 PM AKDT
Crepúsculo astronómico 6:31 AM AKDT 9:19 PM AKDT
Luna 12:49 AM AKDT (10/13) 5:21 PM AKDT (10/13)
Horas de luz 11h 47m
Horas de luz
10h 28m
Creciente menguante, 36% of the Moon is Illuminated
Oct 13
Creciente menguante
Oct 19
Nueva
Oct 27
Cuarto creciente
Nov 3
Luna llena
Nov 10
Cuarto menguante

Hourly Weather History & Observations

Hora (AKDT) Temp. Vientos helados Punto de rocío Humedad Presión Visibilidad Wind Dir Velocidad del viento Velocidad de ráfagas Precip Eventos Condiciones
12:53 AM 50.0 ° F - 36.0 ° F 59% 29.95 pul 10.0 mi SO 9.2 mph - N/A   Despejado
1:53 AM 50.0 ° F - 34.0 ° F 54% 29.96 pul 10.0 mi Norte 8.1 mph - N/A   Despejado
2:53 AM 46.9 ° F - 33.1 ° F 59% 29.97 pul 10.0 mi Sin viento Sin viento - N/A   Despejado
3:53 AM 45.0 ° F - 33.1 ° F 63% 29.98 pul 10.0 mi Sin viento Sin viento - N/A   Despejado
4:53 AM 45.0 ° F - 30.9 ° F 58% 29.98 pul 10.0 mi Sin viento Sin viento - N/A   Despejado
5:53 AM 48.0 ° F - 30.9 ° F 52% 29.99 pul 10.0 mi NNE 8.1 mph - N/A   Despejado
6:53 AM 42.1 ° F 36.6 ° F 32.0 ° F 67% 29.99 pul 10.0 mi Oeste 9.2 mph - N/A   Despejado
7:53 AM 43.0 ° F - 32.0 ° F 65% 30.01 pul 10.0 mi Sin viento Sin viento - N/A   Despejado
8:53 AM 39.0 ° F 36.8 ° F 32.0 ° F 76% 30.01 pul 10.0 mi Oeste 3.5 mph - N/A   Despejado
9:53 AM 43.0 ° F 41.3 ° F 33.1 ° F 68% 30.01 pul 10.0 mi ONO 3.5 mph - N/A   Despejado
10:53 AM 48.0 ° F - 36.0 ° F 63% 30.02 pul 10.0 mi NE 4.6 mph - N/A   Despejado
11:53 AM 51.1 ° F - 34.0 ° F 52% 30.02 pul 10.0 mi OSO 11.5 mph - N/A   Despejado
12:53 PM 52.0 ° F - 34.0 ° F 50% 30.02 pul 10.0 mi Oeste 6.9 mph - N/A   Despejado
1:53 PM 52.0 ° F - 34.0 ° F 50% 30.03 pul 10.0 mi NO 9.2 mph - N/A   Despejado
2:53 PM 53.1 ° F - 34.0 ° F 48% 30.02 pul 10.0 mi Sin viento Sin viento - N/A   Despejado
3:53 PM 53.1 ° F - 34.0 ° F 48% 29.99 pul 10.0 mi Variable 4.6 mph - N/A   Despejado
4:53 PM 53.1 ° F - 30.0 ° F 41% 30.00 pul 10.0 mi Oeste 9.2 mph - N/A   Despejado
5:53 PM 52.0 ° F - 30.0 ° F 43% 30.00 pul 10.0 mi Oeste 10.4 mph - N/A   Despejado
6:53 PM 48.0 ° F - 30.9 ° F 52% 30.00 pul 10.0 mi OSO 6.9 mph - N/A   Despejado
7:53 PM 42.1 ° F 37.1 ° F 32.0 ° F 67% 30.00 pul 10.0 mi ONO 8.1 mph - N/A   Despejado
8:53 PM 39.9 ° F 35.1 ° F 30.9 ° F 70% 29.99 pul 10.0 mi OSO 6.9 mph - N/A   Despejado
9:53 PM 41.0 ° F - 33.1 ° F 73% 29.97 pul 10.0 mi Sin viento Sin viento - N/A   Despejado
10:53 PM 35.1 ° F 30.1 ° F 30.0 ° F 82% 29.98 pul 10.0 mi Oeste 5.8 mph - N/A   Despejado
11:53 PM 34.0 ° F 29.8 ° F 30.0 ° F 85% 29.95 pul 10.0 mi Oeste 4.6 mph - N/A   Despejado